Stations météo

réclame
Mon MeteoGroup
Gourette, France (7775): Température de l'air & dewpoint: 09.12.2018 13:00:00 - 15.12.2018 13:00:00 (CET)Gourette, France (7775): Vitesse du vent & gusts: 09.12.2018 13:00:00 - 15.12.2018 13:00:00 (CET)Gourette, France (7775): Direction du vent: 09.12.2018 13:00:00 - 15.12.2018 13:00:00 (CET)Gourette, France (7775): reduced air pressure: 09.12.2018 13:00:00 - 15.12.2018 13:00:00 (CET)Gourette, France (7775): visibility: 09.12.2018 13:00:00 - 15.12.2018 13:00:00 (CET)Gourette, France (7775): Quantités de précipitations: 09.12.2018 13:00:00 - 15.12.2018 13:00:00 (CET)
Date & Time tt [°C] td [°C] ff [km/h] ff [knt] fx [km/h] fx [knt] dd ppp [hPa] vv [km] rr [mm]
15.12.2018 13:00:00 12,5 3,4 29 16 44 24 NNE 1017,8 - -
15.12.2018 12:00:00 12,0 3,7 28 15 48 26 N 1017,9 - 0,0
15.12.2018 11:00:00 11,6 3,6 25 13 37 20 NNE 1018,3 - 0,0
15.12.2018 10:00:00 9,0 3,4 19 10 31 17 N 1018,3 22 0,0
15.12.2018 09:00:00 7,7 2,4 19 11 31 17 NNW 1017,7 - 0,0
15.12.2018 08:00:00 6,3 1,8 24 13 33 18 NNW 1016,9 - 0,0
15.12.2018 07:00:00 5,7 1,6 13 7 27 15 NNW 1016,4 15 0,0
15.12.2018 06:00:00 6,3 1,8 23 12 35 19 N 1016,1 - 0,0
15.12.2018 05:00:00 6,5 2,2 26 14 39 21 N 1015,6 - 0,0
15.12.2018 04:00:00 7,1 2,2 17 9 32 18 N 1015,6 - 0,0
15.12.2018 03:00:00 7,5 2,6 20 11 30 16 NNW 1015,3 - 0,0
15.12.2018 02:00:00 7,6 2,9 19 10 31 17 N 1014,7 - 0,0
15.12.2018 01:00:00 7,7 2,8 23 12 40 21 N 1014,4 - 0,0
15.12.2018 00:00:00 6,8 2,1 19 11 30 16 N 1014,4 - 0,0
14.12.2018 23:00:00 7,3 0,0 16 8 31 17 NNW 1014,0 - 0,0
14.12.2018 22:00:00 7,5 -0,2 16 8 30 16 NNW 1013,9 - 0,0
14.12.2018 21:00:00 7,5 1,3 22 12 32 17 NNW 1013,7 - 0,0
14.12.2018 20:00:00 7,8 1,6 22 12 38 20 NNW 1013,5 - 0,0
14.12.2018 19:00:00 8,5 1,9 29 16 40 22 NNW 1012,7 12 0,0
14.12.2018 18:00:00 8,5 1,9 28 15 51 27 NNW 1012,2 - 0,0
14.12.2018 17:00:00 8,6 3,0 27 14 51 28 N 1011,4 - 0,0
14.12.2018 16:00:00 9,1 3,9 27 15 53 29 N 1011,1 30 0,0
14.12.2018 15:00:00 9,4 5,0 26 14 49 27 N 1010,8 - 0,0
14.12.2018 14:00:00 10,0 5,4 31 17 52 28 N 1010,4 - 0,0
14.12.2018 13:00:00 10,3 5,5 36 19 56 30 N 1010,2 30 0,0
14.12.2018 12:00:00 9,9 6,6 26 14 49 26 NNW 1010,4 - 0,0
14.12.2018 11:00:00 9,1 6,0 27 15 48 26 NNW 1010,5 - 0,0
14.12.2018 10:00:00 8,8 6,1 23 12 39 21 N 1009,9 18 0,0
14.12.2018 09:00:00 8,5 6,5 21 11 35 19 N 1009,8 - 0,0
14.12.2018 08:00:00 8,2 6,5 21 11 39 21 N 1009,3 - 0,0
14.12.2018 07:00:00 8,0 6,6 23 12 36 19 N 1008,9 18 0,0
14.12.2018 06:00:00 8,1 6,2 19 11 37 20 N 1008,6 - 0,0
14.12.2018 05:00:00 8,1 6,6 22 12 32 17 NNW 1008,6 - 0,2
14.12.2018 04:00:00 8,0 6,5 18 10 31 17 NNW 1009,0 - 0,2
14.12.2018 03:00:00 8,0 6,5 21 11 32 17 NNW 1009,4 - 0,2
14.12.2018 02:00:00 8,2 7,3 21 11 32 18 N 1009,4 - 0,0
14.12.2018 01:00:00 8,4 7,5 18 10 25 14 NNW 1009,5 - 0,4
14.12.2018 00:00:00 8,4 7,3 15 8 25 14 NNW 1009,7 - 0,2
13.12.2018 23:00:00 8,5 7,7 16 8 29 16 NNW 1009,7 - 0,4
13.12.2018 22:00:00 8,2 7,6 17 9 22 12 NW 1009,8 - 0,8
13.12.2018 21:00:00 8,2 7,6 14 8 26 14 NNW 1010,0 - 1,1
13.12.2018 20:00:00 8,1 7,5 18 10 24 13 NW 1009,9 - 3,0
13.12.2018 19:00:00 8,4 7,6 14 8 23 13 NNW 1009,8 - 1,6
13.12.2018 18:00:00 8,4 7,8 17 9 29 16 N 1009,6 - 0,6
13.12.2018 17:00:00 8,5 7,7 17 9 29 16 N 1009,7 - 0,2
13.12.2018 16:00:00 8,6 7,7 16 9 24 13 N 1009,8 - 0,6
13.12.2018 15:00:00 8,7 7,5 16 9 21 11 NNW 1009,8 - 0,6
13.12.2018 14:00:00 8,9 7,3 14 8 19 11 NNW 1010,0 - 0,2
13.12.2018 13:00:00 9,0 7,4 13 7 25 13 N 1010,6 25 0,0
13.12.2018 12:00:00 8,9 7,8 16 9 29 16 N 1011,3 - 0,0
13.12.2018 11:00:00 8,7 7,9 21 11 31 17 N 1011,6 - 0,0
13.12.2018 10:00:00 8,7 8,2 21 11 40 22 N 1012,1 18 0,0
13.12.2018 09:00:00 8,3 7,9 26 14 40 22 N 1012,0 - 1,0
13.12.2018 08:00:00 9,1 8,6 23 13 40 21 N 1011,8 - 3,4
13.12.2018 07:00:00 9,6 8,8 17 9 33 18 NNW 1011,5 10 2,3
13.12.2018 06:00:00 9,9 9,0 17 9 37 20 N 1011,3 - 1,0
13.12.2018 05:00:00 10,1 9,3 22 12 52 28 ENE 1011,8 - 1,0
13.12.2018 04:00:00 10,3 9,4 30 16 51 27 ENE 1012,0 - 1,6
13.12.2018 03:00:00 10,5 9,4 29 16 51 28 ENE 1012,4 - 0,0
13.12.2018 02:00:00 10,0 9,4 24 13 40 22 NE 1013,3 - 0,2
13.12.2018 01:00:00 8,9 7,8 20 11 33 18 NNW 1013,7 - 0,2
13.12.2018 00:00:00 8,8 7,7 17 9 32 17 N 1014,3 - 6,7
12.12.2018 23:00:00 10,2 7,1 18 10 27 15 NW 1014,7 - 0,0
12.12.2018 22:00:00 10,1 6,8 14 8 28 15 NW 1014,9 - 0,0
12.12.2018 21:00:00 10,0 6,2 16 9 23 12 NNW 1015,3 - 0,0
12.12.2018 20:00:00 10,0 6,7 16 9 23 13 NNW 1015,8 - 0,0
12.12.2018 19:00:00 9,8 7,4 16 9 25 14 NNW 1015,6 15 0,0
12.12.2018 18:00:00 10,3 6,8 6 4 16 9 N 1015,8 - 0,0
12.12.2018 17:00:00 10,7 7,2 14 7 23 12 WSW 1015,7 - 0,0
12.12.2018 16:00:00 11,4 7,3 18 10 32 17 SW 1016,1 - 0,0
12.12.2018 15:00:00 12,7 6,5 20 11 35 19 SSE 1015,9 - 0,0
12.12.2018 14:00:00 12,2 7,3 21 11 42 23 SSE 1016,3 - 0,0
12.12.2018 13:00:00 13,7 7,9 16 9 31 17 ESE 1016,9 - 0,0
12.12.2018 12:00:00 14,2 5,8 10 6 22 12 S 1017,5 - 0,0
12.12.2018 11:00:00 15,2 5,9 12 6 19 10 SW 1017,7 - 0,0
12.12.2018 10:00:00 14,2 5,0 13 7 19 10 SSW 1017,7 28 0,0
12.12.2018 09:00:00 10,9 3,4 16 9 18 10 SW 1017,8 - 0,0
12.12.2018 08:00:00 10,2 2,1 11 6 13 7 WSW 1017,6 - 0,0
12.12.2018 07:00:00 10,5 1,8 7 4 12 7 WSW 1017,5 - 0,0
12.12.2018 06:00:00 9,8 1,9 10 5 11 6 SW 1017,3 - 0,0
12.12.2018 05:00:00 11,4 1,6 7 4 14 7 W 1017,5 - 0,0
12.12.2018 04:00:00 11,6 1,5 10 6 13 7 NW 1017,6 - 0,0
12.12.2018 03:00:00 11,9 1,2 7 4 11 6 NW 1017,8 - 0,0
12.12.2018 02:00:00 11,9 0,0 9 5 21 11 NW 1017,8 - 0,0
12.12.2018 01:00:00 11,5 -0,3 16 9 19 10 NNW 1018,0 - 0,0
12.12.2018 00:00:00 11,8 -1,0 16 8 19 10 NW 1018,1 - 0,0
11.12.2018 23:00:00 11,9 -1,3 14 8 17 9 NW 1018,3 - 0,0
11.12.2018 22:00:00 12,2 -1,4 14 8 18 10 NW 1018,2 - 0,0
11.12.2018 21:00:00 11,9 -0,3 14 8 17 9 NNW 1018,1 - 0,0
11.12.2018 20:00:00 12,1 -0,1 15 8 18 10 NW 1017,9 - 0,0
11.12.2018 19:00:00 11,8 0,5 15 8 19 10 NNW 1017,9 - 0,0
11.12.2018 18:00:00 11,8 1,7 16 8 20 11 NNW 1017,6 - 0,0
11.12.2018 17:00:00 11,5 1,4 16 9 19 10 NNW 1017,5 - 0,0
11.12.2018 16:00:00 14,0 2,9 9 5 12 7 NNW 1017,2 30 0,0
11.12.2018 15:00:00 16,8 3,5 7 4 14 8 N 1017,1 - 0,0
11.12.2018 14:00:00 15,8 4,8 11 6 21 11 NNE 1017,1 - 0,0
11.12.2018 13:00:00 17,9 5,8 8 5 18 10 ENE 1017,5 30 0,0
11.12.2018 12:00:00 18,0 6,2 10 5 22 12 NE 1017,7 - 0,0
11.12.2018 11:00:00 16,6 4,3 6 4 11 6 NNE 1018,3 - 0,0
11.12.2018 10:00:00 - - - - - - - - - -
11.12.2018 09:00:00 13,7 2,3 9 5 18 10 WSW 1018,1 - 0,0
11.12.2018 08:00:00 12,3 -0,3 12 7 15 8 WNW 1017,6 - 0,0
11.12.2018 07:00:00 12,8 0,2 9 5 16 9 NW 1017,3 15 0,0
11.12.2018 06:00:00 11,6 0,9 15 8 18 10 NW 1017,5 - 0,0
11.12.2018 05:00:00 12,5 -1,1 13 7 17 9 NW 1017,1 - 0,0
11.12.2018 04:00:00 12,2 -2,5 12 6 16 8 NNW 1017,2 - 0,0
11.12.2018 03:00:00 13,2 -2,3 4 2 9 5 W 1017,5 - 0,0
11.12.2018 02:00:00 13,2 -1,2 4 2 13 7 W 1017,6 - 0,0
11.12.2018 01:00:00 10,6 0,0 9 5 29 16 W 1017,9 - 0,0
11.12.2018 00:00:00 13,0 0,0 16 9 26 14 NNW 1018,0 - 0,0
10.12.2018 23:00:00 12,9 -0,4 15 8 27 15 NW 1018,5 - 0,0
10.12.2018 22:00:00 12,5 -0,8 21 11 27 14 NW 1018,6 - 0,0
10.12.2018 21:00:00 14,1 -2,0 13 7 23 12 NW 1018,8 - 0,0
10.12.2018 20:00:00 13,4 -2,2 10 5 21 11 WNW 1018,4 - 0,0
10.12.2018 19:00:00 13,4 -2,2 12 6 26 14 WNW 1018,4 - 0,0
10.12.2018 18:00:00 13,5 -2,5 13 7 25 14 W 1018,1 - 0,0
10.12.2018 17:00:00 14,0 -2,0 15 8 27 15 WNW 1017,8 - 0,0
10.12.2018 16:00:00 16,0 -2,5 14 8 45 25 NW 1017,6 - 0,0
10.12.2018 15:00:00 18,0 -2,3 18 10 39 21 N 1017,0 - 0,0
10.12.2018 14:00:00 18,4 -1,5 19 10 46 25 NNW 1016,7 - 0,0
10.12.2018 13:00:00 19,2 0,7 23 12 49 27 N 1016,4 15 0,0
10.12.2018 12:00:00 19,5 1,9 24 13 57 31 N 1016,2 - 0,0
10.12.2018 11:00:00 18,3 -1,6 16 9 42 23 NW 1016,4 - 0,0
10.12.2018 10:00:00 16,2 4,2 17 9 26 14 W 1016,2 15 0,0
10.12.2018 09:00:00 13,4 1,7 12 7 22 12 NW 1015,9 - 0,0
10.12.2018 08:00:00 13,8 -1,8 14 8 24 13 NNW 1015,1 - 0,0
10.12.2018 07:00:00 12,6 -2,5 11 6 19 11 WSW 1014,3 - 0,0
10.12.2018 06:00:00 14,3 -1,4 8 4 24 13 NNE 1013,5 - 0,0
10.12.2018 05:00:00 13,8 -2,2 7 4 35 19 SSW 1013,1 - 0,0
10.12.2018 04:00:00 16,1 -4,0 11 6 41 22 WNW 1013,3 15 0,0
10.12.2018 03:00:00 17,0 -6,2 10 6 29 15 WNW 1012,8 - 0,0
10.12.2018 02:00:00 16,1 -5,1 11 6 25 14 S 1012,4 - 0,0
10.12.2018 01:00:00 15,9 -4,1 10 6 40 22 N 1012,4 - 0,0
10.12.2018 00:00:00 15,2 -1,8 13 7 27 14 ESE 1012,6 - 0,0
09.12.2018 23:00:00 15,8 -1,3 13 7 47 26 S 1012,1 - 0,0
09.12.2018 22:00:00 15,1 0,5 14 8 45 24 S 1012,4 - 0,0
09.12.2018 21:00:00 15,8 0,4 12 6 62 33 ENE 1012,0 - 0,0
09.12.2018 20:00:00 16,7 -1,0 16 9 61 33 NNW 1011,5 - 0,0
09.12.2018 19:00:00 17,2 2,0 40 22 72 39 W 1010,8 12 0,0
09.12.2018 18:00:00 17,4 1,8 37 20 - - W 1010,8 - 0,0
09.12.2018 17:00:00 17,9 0,5 36 19 84 45 W 1009,5 - 0,0
09.12.2018 16:00:00 18,7 0,8 50 27 131 71 W 1009,1 30 0,0
09.12.2018 15:00:00 19,5 1,9 61 33 129 70 W 1007,0 - 0,0
09.12.2018 14:00:00 20,4 1,8 59 32 131 71 WSW 1006,9 - 0,0
09.12.2018 13:00:00 20,8 1,1 59 32 98 53 W 1008,5 25 0,0

tt = Température de l'air
td = dewpoint
ff = Vitesse du vent
fx = gusts
dd = Direction du vent
ppp = reduced air pressure
vv = visibility
rr = Quantités de précipitations

stations d'obs. à proximité